Starlink 11679

operational
NORAD ID: 64129 Int'l Des: 2025-111 Owner: SPXS Country: US Constellation: starlink
LEOCIRCULAR

Über Starlink 11679

Beschreibung wird geladen...

Live-Position

3D-Globus wird geladen...

Nächste Überflüge

Höhenverlauf

Altitude vs Time

uPlot chart will show altitude changes over time

Zweizeiliger Elementsatz

1 64129U 25111G 25353.64766485 .00190828 00000-0 14538-2 0 9997
2 64129 42.9997 96.0421 0001533 300.0793 59.9922 15.70889021 34059
Epoch: 19. Dez. 2025 • Age: 11 hours

Aktueller Status

Höhe 357.9 km
Geschwindigkeit 7.70 km/s
Subsatellitenpunkt 35.69°N, 17.26°E
Startdatum 24. Mai 2025
Alter 0.5 years
Typ internet

Technische Details

Klassifizierung Payload
Masse 960.00 kg
Trockenmasse 910.00 kg
Gesamtmasse 960.00 kg
Länge 0.30 m
Durchmesser 4.10 m
Spannweite 29.00 m
Form Box + pan
Hersteller SPXS
Bus-Typ Starlink V2MD
Phasenstatus In Orbit
Besitzer/Staat SPXS/US

Große Konstellationen

Loading constellations...